Location: Lecco
(45.8566°N, 9.3977°E)
Time: 00:21:00
(UTC+02:00)

OTV 5 (USA 277) - Visible Passes

Search period start: 26 April 2019 00:00
Search period end: 06 May 2019 00:00
Orbit: 309 x 326 km, 54.5° (Epoch: 21 April)

Date Brightness Start Highest point End Pass type
(mag) Time Alt. Az. Time Alt. Az. Time Alt. Az.
26 Apr ? 22:06:31 10° W 22:08:56 27° NNW 22:11:20 10° NE visible
26 Apr ? 23:42:26 10° NW 23:43:08 12° NNW 23:43:08 12° NNW visible
27 Apr ? 22:21:53 10° WNW 22:23:53 18° NNW 22:25:54 10° NNE visible
27 Apr ? 23:57:29 10° NNW 23:57:40 11° NNW 23:57:40 11° NNW visible
28 Apr ? 21:01:26 10° W 21:04:01 36° NNW 21:06:35 10° NE visible
28 Apr ? 22:37:18 10° NW 22:38:55 14° N 22:40:33 10° NNE visible
29 Apr ? 21:16:41 10° WNW 21:18:55 22° NNW 21:21:08 10° NE visible
29 Apr ? 22:52:31 10° NNW 22:54:00 13° N 22:55:18 11° NNE visible
30 Apr ? 21:32:06 10° NW 21:33:54 16° NNW 21:35:43 10° NNE visible
30 Apr ? 23:07:22 10° NNW 23:09:04 15° N 23:09:25 15° NNE visible
01 May ? 21:47:26 10° NW 21:48:58 14° N 21:50:29 10° NNE visible
01 May ? 23:21:58 10° NNW 23:23:29 18° N 23:23:29 18° N visible
02 May ? 22:02:28 10° NNW 22:04:02 14° N 22:05:35 10° NE visible
02 May ? 23:36:31 10° NW 23:37:31 18° NNW 23:37:31 18° NNW visible
03 May ? 22:17:10 10° NNW 22:19:03 17° NNE 22:20:40 11° NE visible
03 May ? 23:51:07 10° NW 23:51:33 14° NW 23:51:33 14° NW visible
04 May ? 22:31:43 10° NW 22:34:02 24° NNE 22:34:41 22° NE visible
05 May ? 21:12:19 10° NNW 21:14:03 15° N 21:15:44 10° NE visible
05 May ? 22:46:16 10° NW 22:48:43 42° NNE 22:48:43 42° NNE visible
